Hourly Weather Osh

Today, 5 July, Sunday

Time Temperature Precipitation Wind Pressure Humidity
00:00 +20°C° 0 mm 1 mps 654 mmHg 31%
01:00 +18°C° 0 mm 2 mps 653 mmHg 32%
02:00 +18°C° 0 mm 2 mps 653 mmHg 33%
03:00 +18°C° 0 mm 2 mps 653 mmHg 34%
04:00 +17°C° 0 mm 2 mps 653 mmHg 35%
05:00 +17°C° 0 mm 2 mps 653 mmHg 36%
06:00 +19°C° 0 mm 2 mps 653 mmHg 32%
07:00 +22°C° 0 mm 1 mps 653 mmHg 29%
08:00 +24°C° 0 mm 1 mps 654 mmHg 26%
09:00 +25°C° 0 mm 2 mps 654 mmHg 25%
10:00 +26°C° 0 mm 3 mps 654 mmHg 25%
11:00 +27°C° 0 mm 3 mps 654 mmHg 24%
12:00 +28°C° 0 mm 4 mps 653 mmHg 24%
13:00 +29°C° 0 mm 4 mps 653 mmHg 23%
14:00 +29°C° 0 mm 5 mps 653 mmHg 23%
15:00 +29°C° 0 mm 5 mps 653 mmHg 23%
16:00 +29°C° 0 mm 5 mps 653 mmHg 22%
17:00 +29°C° 0 mm 5 mps 653 mmHg 22%
18:00 +27°C° 0 mm 5 mps 653 mmHg 25%
19:00 +25°C° 0 mm 4 mps 653 mmHg 27%
20:00 +22°C° 0 mm 4 mps 653 mmHg 30%
21:00 +21°C° 0 mm 4 mps 653 mmHg 32%
22:00 +21°C° 0 mm 4 mps 653 mmHg 34%
23:00 +20°C° 0 mm 3 mps 652 mmHg 36%

Tomorrow, 6 July, Monday

Time Temperature Precipitation Wind Pressure Humidity
00:00 +19°C° 0.1 mm 3 mps 652 mmHg 38%
01:00 +18°C° 0.1 mm 2 mps 652 mmHg 40%
02:00 +18°C° 0.1 mm 2 mps 652 mmHg 42%
03:00 +18°C° 0 mm 2 mps 652 mmHg 42%
04:00 +17°C° 0 mm 2 mps 652 mmHg 43%
05:00 +17°C° 0 mm 2 mps 652 mmHg 43%
06:00 +19°C° 0 mm 2 mps 652 mmHg 39%
07:00 +21°C° 0 mm 2 mps 653 mmHg 35%
08:00 +24°C° 0 mm 2 mps 653 mmHg 31%
09:00 +25°C° 0 mm 3 mps 654 mmHg 29%
10:00 +26°C° 0 mm 4 mps 654 mmHg 28%
11:00 +27°C° 0 mm 4 mps 654 mmHg 26%
12:00 +28°C° 0 mm 4 mps 654 mmHg 25%
13:00 +29°C° 0 mm 4 mps 654 mmHg 24%
14:00 +29°C° 0 mm 3 mps 654 mmHg 23%
15:00 +29°C° 0 mm 3 mps 654 mmHg 23%
16:00 +29°C° 0 mm 3 mps 654 mmHg 22%
17:00 +29°C° 0 mm 3 mps 654 mmHg 21%
18:00 +27°C° 0 mm 2 mps 654 mmHg 25%
19:00 +25°C° 0 mm 2 mps 654 mmHg 29%
20:00 +23°C° 0 mm 2 mps 654 mmHg 33%
21:00 +21°C° 0 mm 2 mps 654 mmHg 34%
22:00 +21°C° 0 mm 2 mps 654 mmHg 35%
23:00 +20°C° 0 mm 2 mps 654 mmHg 37%

Day after tomorrow, 7 July, Tuesday

Time Temperature Precipitation Wind Pressure Humidity
00:00 +20°C° 0 mm 2 mps 654 mmHg 36%
01:00 +19°C° 0 mm 2 mps 654 mmHg 36%
02:00 +19°C° 0 mm 2 mps 653 mmHg 36%
03:00 +20°C° 0 mm 1 mps 653 mmHg 36%
04:00 +19°C° 0 mm 1 mps 653 mmHg 37%
05:00 +19°C° 0 mm 1 mps 653 mmHg 37%
06:00 +21°C° 0 mm 1 mps 654 mmHg 33%
07:00 +24°C° 0 mm 1 mps 654 mmHg 29%
08:00 +26°C° 0 mm 1 mps 655 mmHg 25%
09:00 +28°C° 0 mm 2 mps 655 mmHg 23%
10:00 +29°C° 0 mm 2 mps 655 mmHg 21%
11:00 +30°C° 0 mm 2 mps 656 mmHg 20%
12:00 +31°C° 0 mm 2 mps 656 mmHg 19%
13:00 +32°C° 0 mm 2 mps 656 mmHg 18%
14:00 +34°C° 0 mm 2 mps 656 mmHg 17%
15:00 +34°C° 0 mm 2 mps 656 mmHg 16%
16:00 +34°C° 0 mm 2 mps 655 mmHg 16%
17:00 +34°C° 0 mm 2 mps 655 mmHg 16%
18:00 +31°C° 0 mm 2 mps 655 mmHg 19%
19:00 +28°C° 0 mm 2 mps 655 mmHg 23%
20:00 +26°C° 0 mm 1 mps 654 mmHg 26%
21:00 +25°C° 0 mm 2 mps 654 mmHg 27%
22:00 +25°C° 0 mm 2 mps 654 mmHg 28%
23:00 +24°C° 0 mm 2 mps 654 mmHg 29%

8 July, Wednesday

Time Temperature Precipitation Wind Pressure Humidity
00:00 +23°C° 0 mm 2 mps 654 mmHg 30%
01:00 +23°C° 0 mm 2 mps 654 mmHg 31%
02:00 +22°C° 0 mm 1 mps 653 mmHg 31%
03:00 +22°C° 0 mm 1 mps 653 mmHg 32%
04:00 +22°C° 0 mm 1 mps 653 mmHg 33%
05:00 +21°C° 0 mm 1 mps 653 mmHg 33%
06:00 +24°C° 0 mm 1 mps 654 mmHg 30%
07:00 +26°C° 0 mm 1 mps 654 mmHg 26%
08:00 +29°C° 0 mm 1 mps 655 mmHg 23%
09:00 +30°C° 0 mm 2 mps 655 mmHg 22%
10:00 +31°C° 0 mm 2 mps 655 mmHg 21%
11:00 +33°C° 0 mm 3 mps 655 mmHg 19%
12:00 +34°C° 0 mm 2 mps 655 mmHg 18%
13:00 +35°C° 0 mm 2 mps 655 mmHg 17%
14:00 +36°C° 0 mm 2 mps 655 mmHg 16%
15:00 +36°C° 0 mm 2 mps 655 mmHg 16%
16:00 +36°C° 0 mm 2 mps 655 mmHg 15%
17:00 +36°C° 0 mm 3 mps 655 mmHg 15%
18:00 +34°C° 0 mm 3 mps 655 mmHg 18%
19:00 +31°C° 0 mm 2 mps 654 mmHg 21%
20:00 +29°C° 0 mm 2 mps 654 mmHg 24%
21:00 +27°C° 0 mm 2 mps 654 mmHg 26%
22:00 +26°C° 0 mm 2 mps 653 mmHg 28%
23:00 +24°C° 0 mm 2 mps 653 mmHg 30%

9 July, Thursday

Time Temperature Precipitation Wind Pressure Humidity
00:00 +24°C° 0 mm 2 mps 653 mmHg 30%
01:00 +24°C° 0 mm 2 mps 652 mmHg 31%
02:00 +24°C° 0 mm 2 mps 652 mmHg 31%
03:00 +23°C° 0 mm 2 mps 652 mmHg 32%
04:00 +23°C° 0 mm 2 mps 652 mmHg 33%
05:00 +23°C° 0 mm 1 mps 652 mmHg 34%
06:00 +24°C° 0.1 mm 2 mps 652 mmHg 32%
07:00 +26°C° 0.1 mm 2 mps 653 mmHg 31%
08:00 +28°C° 0.1 mm 3 mps 653 mmHg 30%
09:00 +29°C° 0 mm 3 mps 653 mmHg 27%
10:00 +30°C° 0 mm 3 mps 653 mmHg 25%
11:00 +31°C° 0 mm 3 mps 653 mmHg 23%
12:00 +33°C° 0 mm 3 mps 653 mmHg 22%
13:00 +34°C° 0 mm 2 mps 653 mmHg 21%
14:00 +35°C° 0 mm 2 mps 653 mmHg 19%
15:00 +33°C° 0 mm 5 mps 652 mmHg 24%
16:00 +30°C° 0 mm 7 mps 652 mmHg 29%
17:00 +28°C° 0 mm 9 mps 652 mmHg 34%
18:00 +27°C° 0 mm 7 mps 652 mmHg 36%
19:00 +26°C° 0 mm 5 mps 653 mmHg 38%
20:00 +25°C° 0 mm 2 mps 653 mmHg 41%
21:00 +25°C° 0 mm 2 mps 653 mmHg 42%
22:00 +24°C° 0 mm 2 mps 653 mmHg 44%
23:00 +23°C° 0 mm 1 mps 653 mmHg 45%

10 July, Friday

Time Temperature Precipitation Wind Pressure Humidity
00:00 +22°C° 0.2 mm 1 mps 652 mmHg 49%
01:00 +21°C° 0.2 mm 1 mps 651 mmHg 53%
02:00 +20°C° 0.2 mm 1 mps 651 mmHg 57%
03:00 +20°C° 0.2 mm 1 mps 651 mmHg 55%
04:00 +20°C° 0.2 mm 2 mps 651 mmHg 54%
05:00 +20°C° 0.2 mm 2 mps 651 mmHg 52%
06:00 +21°C° 0.1 mm 2 mps 651 mmHg 49%
07:00 +24°C° 0.1 mm 2 mps 651 mmHg 45%
08:00 +26°C° 0.1 mm 1 mps 652 mmHg 41%
09:00 +27°C° 0.1 mm 2 mps 652 mmHg 38%
10:00 +29°C° 0.1 mm 2 mps 652 mmHg 34%
11:00 +30°C° 0.1 mm 2 mps 652 mmHg 31%
12:00 +31°C° 0.1 mm 2 mps 652 mmHg 28%
13:00 +31°C° 0.1 mm 2 mps 652 mmHg 25%
14:00 +32°C° 0.1 mm 2 mps 652 mmHg 23%
15:00 +33°C° 0.1 mm 4 mps 652 mmHg 24%
16:00 +32°C° 0.1 mm 5 mps 653 mmHg 26%
17:00 +30°C° 0.1 mm 6 mps 653 mmHg 27%
18:00 +28°C° 0 mm 5 mps 653 mmHg 33%
19:00 +26°C° 0 mm 3 mps 653 mmHg 40%
20:00 +23°C° 0 mm 1 mps 652 mmHg 46%
21:00 +23°C° 0 mm 2 mps 653 mmHg 46%
22:00 +23°C° 0 mm 2 mps 653 mmHg 46%
23:00 +23°C° 0 mm 2 mps 653 mmHg 46%
Show more